Hourly Weather Ramadi

Today, 1 October, Thursday

Time Temperature Precipitation Wind Pressure Humidity
00:00 +28°C° 0 mm 1 mps 749 mmHg 23%
01:00 +28°C° 0 mm 1 mps 749 mmHg 23%
02:00 +28°C° 0 mm 2 mps 749 mmHg 23%
03:00 +28°C° 0 mm 2 mps 749 mmHg 24%
04:00 +28°C° 0 mm 2 mps 749 mmHg 25%
05:00 +28°C° 0 mm 2 mps 750 mmHg 26%
06:00 +27°C° 0 mm 2 mps 751 mmHg 27%
07:00 +29°C° 0 mm 3 mps 751 mmHg 25%
08:00 +33°C° 0 mm 3 mps 751 mmHg 23%
09:00 +35°C° 0 mm 3 mps 752 mmHg 21%
10:00 +36°C° 0 mm 2 mps 751 mmHg 20%
11:00 +38°C° 0 mm 2 mps 751 mmHg 18%
12:00 +39°C° 0 mm 1 mps 751 mmHg 17%
13:00 +40°C° 0 mm 1 mps 751 mmHg 16%
14:00 +41°C° 0 mm 1 mps 750 mmHg 16%
15:00 +41°C° 0 mm 1 mps 750 mmHg 15%
16:00 +39°C° 0 mm 1 mps 750 mmHg 17%
17:00 +37°C° 0 mm 2 mps 750 mmHg 19%
18:00 +35°C° 0 mm 2 mps 750 mmHg 21%
19:00 +34°C° 0 mm 3 mps 750 mmHg 21%
20:00 +34°C° 0 mm 3 mps 751 mmHg 22%
21:00 +34°C° 0 mm 3 mps 751 mmHg 22%
22:00 +33°C° 0 mm 3 mps 751 mmHg 23%
23:00 +31°C° 0 mm 2 mps 751 mmHg 24%

Tomorrow, 2 October, Friday

Time Temperature Precipitation Wind Pressure Humidity
00:00 +30°C° 0 mm 2 mps 751 mmHg 26%
01:00 +30°C° 0 mm 2 mps 751 mmHg 26%
02:00 +30°C° 0 mm 2 mps 751 mmHg 27%
03:00 +29°C° 0 mm 2 mps 751 mmHg 27%
04:00 +28°C° 0 mm 2 mps 751 mmHg 29%
05:00 +27°C° 0 mm 1 mps 752 mmHg 31%
06:00 +26°C° 0 mm 1 mps 752 mmHg 32%
07:00 +29°C° 0 mm 1 mps 753 mmHg 28%
08:00 +32°C° 0 mm 1 mps 753 mmHg 23%
09:00 +36°C° 0 mm 2 mps 753 mmHg 18%
10:00 +38°C° 0 mm 2 mps 753 mmHg 16%
11:00 +40°C° 0 mm 3 mps 753 mmHg 14%
12:00 +42°C° 0 mm 3 mps 753 mmHg 12%
13:00 +43°C° 0 mm 4 mps 752 mmHg 11%
14:00 +43°C° 0 mm 4 mps 752 mmHg 11%
15:00 +44°C° 0 mm 4 mps 751 mmHg 10%
16:00 +42°C° 0 mm 4 mps 751 mmHg 12%
17:00 +40°C° 0 mm 4 mps 751 mmHg 13%
18:00 +37°C° 0 mm 4 mps 751 mmHg 15%
19:00 +36°C° 0 mm 4 mps 751 mmHg 16%
20:00 +35°C° 0 mm 4 mps 751 mmHg 17%
21:00 +34°C° 0 mm 3 mps 752 mmHg 19%
22:00 +33°C° 0 mm 3 mps 752 mmHg 21%
23:00 +30°C° 0 mm 3 mps 752 mmHg 23%

Day after tomorrow, 3 October, Saturday

Time Temperature Precipitation Wind Pressure Humidity
00:00 +29°C° 0 mm 2 mps 751 mmHg 25%
01:00 +29°C° 0 mm 3 mps 752 mmHg 28%
02:00 +29°C° 0 mm 3 mps 752 mmHg 32%
03:00 +29°C° 0 mm 3 mps 752 mmHg 35%
04:00 +27°C° 0 mm 3 mps 752 mmHg 37%
05:00 +26°C° 0 mm 2 mps 752 mmHg 39%
06:00 +25°C° 0 mm 1 mps 753 mmHg 41%
07:00 +28°C° 0 mm 1 mps 753 mmHg 36%
08:00 +31°C° 0 mm 2 mps 753 mmHg 30%
09:00 +34°C° 0 mm 2 mps 754 mmHg 25%
10:00 +36°C° 0 mm 2 mps 753 mmHg 22%
11:00 +38°C° 0 mm 2 mps 753 mmHg 19%
12:00 +40°C° 0 mm 2 mps 752 mmHg 15%
13:00 +40°C° 0 mm 2 mps 752 mmHg 14%
14:00 +42°C° 0 mm 3 mps 751 mmHg 13%
15:00 +43°C° 0 mm 4 mps 751 mmHg 12%
16:00 +41°C° 0 mm 4 mps 751 mmHg 14%
17:00 +37°C° 0 mm 4 mps 751 mmHg 16%
18:00 +35°C° 0 mm 4 mps 751 mmHg 18%
19:00 +34°C° 0 mm 4 mps 751 mmHg 19%
20:00 +34°C° 0 mm 4 mps 751 mmHg 20%
21:00 +33°C° 0 mm 3 mps 752 mmHg 21%
22:00 +32°C° 0 mm 4 mps 752 mmHg 24%
23:00 +32°C° 0 mm 4 mps 752 mmHg 26%

4 October, Sunday

Time Temperature Precipitation Wind Pressure Humidity
00:00 +30°C° 0 mm 5 mps 751 mmHg 29%
01:00 +30°C° 0 mm 4 mps 751 mmHg 30%
02:00 +29°C° 0 mm 4 mps 751 mmHg 31%
03:00 +28°C° 0 mm 4 mps 751 mmHg 32%
04:00 +28°C° 0 mm 3 mps 751 mmHg 33%
05:00 +27°C° 0 mm 3 mps 752 mmHg 34%
06:00 +27°C° 0 mm 3 mps 752 mmHg 35%
07:00 +29°C° 0 mm 3 mps 752 mmHg 29%
08:00 +33°C° 0 mm 3 mps 752 mmHg 24%
09:00 +35°C° 0 mm 3 mps 753 mmHg 18%
10:00 +37°C° 0 mm 3 mps 752 mmHg 16%
11:00 +38°C° 0 mm 3 mps 752 mmHg 14%
12:00 +40°C° 0 mm 3 mps 751 mmHg 12%
13:00 +40°C° 0 mm 3 mps 751 mmHg 12%
14:00 +42°C° 0 mm 3 mps 750 mmHg 11%
15:00 +42°C° 0 mm 3 mps 750 mmHg 11%
16:00 +39°C° 0 mm 3 mps 750 mmHg 13%
17:00 +37°C° 0 mm 3 mps 750 mmHg 15%
18:00 +35°C° 0 mm 3 mps 750 mmHg 17%
19:00 +34°C° 0 mm 3 mps 750 mmHg 21%
20:00 +33°C° 0 mm 3 mps 750 mmHg 25%
21:00 +30°C° 0 mm 4 mps 751 mmHg 29%
22:00 +30°C° 0 mm 4 mps 751 mmHg 30%
23:00 +30°C° 0 mm 4 mps 751 mmHg 30%

5 October, Monday

Time Temperature Precipitation Wind Pressure Humidity
00:00 +29°C° 0 mm 4 mps 751 mmHg 30%
01:00 +29°C° 0 mm 4 mps 751 mmHg 32%
02:00 +28°C° 0 mm 3 mps 751 mmHg 35%
03:00 +27°C° 0 mm 2 mps 751 mmHg 37%
04:00 +27°C° 0 mm 3 mps 751 mmHg 36%
05:00 +27°C° 0 mm 3 mps 751 mmHg 36%
06:00 +27°C° 0 mm 4 mps 752 mmHg 35%
07:00 +29°C° 0 mm 4 mps 752 mmHg 30%
08:00 +32°C° 0 mm 5 mps 752 mmHg 25%
09:00 +34°C° 0 mm 5 mps 753 mmHg 21%
10:00 +36°C° 0 mm 5 mps 752 mmHg 19%
11:00 +37°C° 0 mm 4 mps 752 mmHg 17%
12:00 +40°C° 0 mm 4 mps 752 mmHg 16%
13:00 +39°C° 0 mm 3 mps 751 mmHg 15%
14:00 +39°C° 0 mm 3 mps 751 mmHg 15%
15:00 +40°C° 0 mm 3 mps 751 mmHg 14%
16:00 +38°C° 0 mm 3 mps 750 mmHg 17%
17:00 +36°C° 0 mm 3 mps 750 mmHg 19%
18:00 +34°C° 0 mm 3 mps 750 mmHg 21%
19:00 +32°C° 0 mm 2 mps 751 mmHg 22%
20:00 +31°C° 0 mm 2 mps 751 mmHg 23%
21:00 +30°C° 0 mm 2 mps 751 mmHg 24%
22:00 +30°C° 0 mm 2 mps 751 mmHg 23%
23:00 +30°C° 0 mm 3 mps 751 mmHg 23%

6 October, Tuesday

Time Temperature Precipitation Wind Pressure Humidity
00:00 +30°C° 0 mm 3 mps 751 mmHg 22%
01:00 +29°C° 0 mm 3 mps 751 mmHg 22%
02:00 +28°C° 0 mm 3 mps 751 mmHg 23%
03:00 +28°C° 0 mm 3 mps 751 mmHg 23%
04:00 +27°C° 0 mm 3 mps 751 mmHg 24%
05:00 +27°C° 0 mm 3 mps 751 mmHg 25%
06:00 +26°C° 0 mm 3 mps 751 mmHg 25%
07:00 +28°C° 0 mm 3 mps 751 mmHg 22%
08:00 +31°C° 0 mm 2 mps 752 mmHg 19%
09:00 +34°C° 0 mm 2 mps 752 mmHg 17%
10:00 +35°C° 0 mm 2 mps 752 mmHg 15%
11:00 +37°C° 0 mm 2 mps 751 mmHg 13%
12:00 +37°C° 0 mm 1 mps 751 mmHg 12%
13:00 +39°C° 0 mm 1 mps 751 mmHg 12%
14:00 +39°C° 0 mm 1 mps 750 mmHg 12%
15:00 +40°C° 0 mm 1 mps 750 mmHg 12%
16:00 +37°C° 0 mm 2 mps 750 mmHg 14%
17:00 +35°C° 0 mm 2 mps 750 mmHg 15%
18:00 +32°C° 0 mm 2 mps 749 mmHg 17%
19:00 +31°C° 0 mm 3 mps 750 mmHg 17%
20:00 +31°C° 0 mm 3 mps 750 mmHg 17%
21:00 +31°C° 0 mm 3 mps 750 mmHg 18%
22:00 +30°C° 0 mm 3 mps 750 mmHg 19%
23:00 +29°C° 0 mm 2 mps 750 mmHg 21%
Show more

We Need Your Consent

Meteoprog and our Service Providers may store and access personal data such as cookies, device identifiers or other similar technologies on your device and process such data to personalise content and ads, as well as provide social media features and to analyse the traffic.

  • Store and/or access information on your device

    Cookies, device identifiers or other information can be stored or accessed on your device for the purposes indicated above.

  • Personalised ads and content, ad and content measurement, audience insights, and products development

    Ads and content can be personalised based on a profile. More data can be added to better personalise ads and content. Ad and content performance can be measured. Insights about the audience who saw the ads and content can be derived. Such data can be used to develop or improve user’s experience, systems and software.

By clicking ‘I Agree’ you will allow the use of indicated cookies, device identifiers, web beacons or other similar technologies. Your settings can be changed in the browser on your device.

For certain purposes, legitimate interests may be relied on, rather than consent. You can read more about this in our Privacy and Cookie Policy.